[[{"header":{"parameterUnit":"m.s-1","parameterCategory":1,"la1":30.2991,"la2":30.254,"lo1":-89.0895,"lo2":-89.0444,"dy":0.0017,"dx":0.0017,"nx":28,"ny":28,"refTime":"2023-08-25T03:00:00:Z","depth":0,"parameterNumber":2,"parameterNumberName":"U-component_of_WINDS"},"data":[0,0,0,0,0,0,0,0,0,0,0,0,0,0,0,0,0,0,0,0,0,0,0,0,0,0,0,0,0,0,0,0,0,0,0,0,0,0,0,0,0,0,0,0,0,0,0,0,0,0,0,0,0,0,0,0,0,0,-1.9618,-1.9619,0,-1.9712,-1.9713,-1.9715,-1.9723,-1.9722,-1.9721,-1.972,-1.9822,-1.9826,-1.9829,0,0,0,0,0,0,0,0,0,0,0,0,0,-1.9452,-1.9455,-1.9618,-1.9619,-1.9621,-1.9712,-1.9714,-1.9715,-1.9723,-1.9722,-1.9721,-1.972,-1.9821,-1.9825,-1.983,0,0,0,0,0,0,0,0,0,0,0,0,0,-1.9533,-1.9456,-1.9618,-1.9636,-1.9638,-1.9712,-1.9714,-1.9715,-1.9724,-1.9722,-1.9721,-1.9719,-1.9819,-1.9825,-1.983,-1.9894,0,0,-1.9847,-1.9849,0,0,0,0,0,0,0,0,-1.9528,-1.9539,-1.9632,-1.9635,-1.9638,-1.9704,-1.9692,-1.9776,-1.9724,-1.9691,-1.972,-1.9718,-1.9785,-1.9793,-1.9814,-1.9899,-1.9904,-1.9847,-1.9851,-1.9853,-1.9855,0,0,0,0,0,0,0,-1.9523,-1.9535,-1.9656,-1.9633,-1.9637,-1.9641,-1.9651,-1.9708,-1.9746,-1.9694,-1.9695,-1.9706,-1.9786,-1.9809,-1.9816,-1.9905,-1.9847,-1.9852,-1.9856,-1.9858,-2.0049,-2.0051,0,0,0,0,0,0,-1.9513,-1.953,-1.9653,-1.9658,-1.9578,-1.9645,-1.9656,-1.9685,-1.9745,-1.9752,-1.9707,-1.9706,-1.98,-1.981,-1.982,-1.99,-1.9853,-1.9858,-1.9861,-2.0047,-2.005,-2.0052,0,0,0,0,0,0,-1.9509,-1.9524,-1.9649,-1.9595,-1.9611,-1.9649,-1.9681,-1.9687,-1.971,-1.9754,-1.9762,-1.9723,-1.9799,-1.9812,-1.9876,-1.9904,-1.9861,-1.9866,-2.0045,-2.0048,-2.0051,-2.006,0,0,0,0,0,0,-1.9504,-1.9522,-1.9546,-1.9595,-1.9614,-1.9701,-1.9683,-1.969,-1.9719,-1.9718,-1.9771,-1.9779,-1.9799,-1.9868,-1.9881,-1.991,-1.987,-2.0043,-2.0047,-2.005,-2.0057,-2.0062,-2.0067,0,0,0,0,0,-1.9498,-1.9546,-1.9547,-1.9562,-1.9643,-1.9703,-1.9714,-1.9734,-1.9721,-1.9746,-1.9774,-1.9777,-1.9898,-1.9874,-1.9889,-1.9921,-2.0041,-2.0046,-2.0049,-2.0055,-2.0061,-2.0067,0,0,0,0,0,0,-1.9501,-1.9552,-1.9554,-1.9619,-1.9656,-1.9704,-1.9736,-1.974,-1.9784,-1.9782,-1.9807,-1.9819,-1.9882,-1.9908,-1.988,-1.9987,-1.9969,-1.9976,-1.9967,-1.9974,-1.9979,-1.9972,-1.9875,0,0,0,0,0,-1.9508,-1.955,-1.9594,-1.9647,-1.9665,-1.9697,-1.9724,-1.9736,-1.9777,-1.9794,-1.9827,-1.9868,-1.9915,-1.9946,-1.9992,-2.0061,-2.0073,-2.009,-2.0095,-2.0099,-2.0105,-2.0144,-2.0153,-2.0065,-2.0065,-2.0065,0,0,-1.9525,-1.9559,-1.9584,-1.9648,-1.9678,-1.9723,-1.9711,-1.9759,-1.9793,-1.9802,-1.9863,-1.9889,-1.9937,-2.0003,-2.0034,-2.0026,-2.0132,-2.0104,-2.0106,-2.0111,-2.0149,-2.0158,-2.0165,-2.0068,-2.0067,-2.0067,0,0,-1.9579,-1.9608,-1.9655,-1.9685,-1.9731,-1.9752,-1.9763,-1.9811,-1.9828,-1.989,-1.9897,-1.9939,-2.002,-2.0054,-2.0081,-2.0148,-2.0153,-2.0162,-2.0188,-2.0226,-2.0233,-2.0239,-2.0264,-2.0273,-2.0168,-2.0168,-2.0168,0,-1.9595,-1.9661,-1.9679,-1.9727,-1.9755,-1.9763,-1.9812,-1.9842,-1.9901,-1.9921,-1.9911,-2.0013,-2.0045,-2.012,-2.0136,-2.0158,-2.0173,-2.0157,-2.023,-2.0237,-2.0243,-2.0267,-2.0276,-2.0169,-2.0169,-2.0169,-2.0169,0,-1.9679,-1.9724,-1.9757,-1.9812,-1.9844,-1.9892,-1.992,-1.9951,-1.996,-1.9983,-2.0047,-2.0086,-2.014,-2.0159,-2.0169,-2.0236,-2.023,-2.0225,-2.0207,-2.0252,-2.0275,-2.0284,-2.0171,-2.017,-2.017,-2.017,0,0,-1.9738,-1.9801,-1.9813,-1.9838,-1.9889,-1.9925,-1.9974,-2.0025,-2.0052,-2.0093,-2.0136,-2.0204,-2.0199,-2.0231,-2.0245,-2.0279,-2.033,-2.027,-2.0272,-2.0281,-2.0407,-2.0411,-2.0421,-2.0333,-2.0335,-2.0336,-2.0403,0,-1.9798,-1.9883,-1.9901,-1.9976,-2.0019,-2.0027,-2.007,-2.0107,-2.0129,-2.0171,-2.0197,-2.0245,-2.0235,-2.0254,-2.0287,-2.0317,-2.0356,-2.0312,-2.0375,-2.0377,-2.0364,-2.0433,-2.0437,-2.0499,-2.0412,-2.0414,-2.0415,0,-1.988,-1.992,-1.9998,-2.0043,-2.0062,-2.01,-2.0148,-2.0187,-2.023,-2.0244,-2.0279,-2.029,-2.0343,-2.0323,-2.0398,-2.0367,-2.0394,-2.0413,-2.0416,-2.0423,-2.0399,-2.0443,-2.0519,-2.0528,-2.0429,-2.0428,-2.0427,0,-1.9916,-1.999,-2.0046,-2.0067,-2.0121,-2.0148,-2.0172,-2.0213,-2.0242,-2.0285,-2.0305,-2.0355,-2.0382,-2.0421,-2.0446,-2.0429,-2.052,-2.0501,-2.0535,-2.0534,-2.0555,-2.0553,-2.0636,-2.057,-2.057,-2.057,-2.057,0,-1.9982,-2.003,-2.0063,-2.0098,-2.0152,-2.0173,-2.0227,-2.0252,-2.0288,-2.0329,-2.034,-2.0379,-2.0409,-2.0452,-2.0472,-2.0532,-2.0544,-2.0559,-2.0564,-2.0559,-2.0557,-2.0577,-2.0574,-2.0572,-2.0572,-2.0571,-2.0571,0,-2.0033,-2.0056,-2.0119,-2.0163,-2.0176,-2.0214,-2.0254,-2.0289,-2.0311,-2.0363,-2.0377,-2.0413,-2.0465,-2.0493,-2.0559,-2.0572,-2.064,-2.0642,-2.0625,-2.0627,-2.066,-2.0657,-2.076,-2.0775,-2.0698,-2.0698,-2.0699,0,-2.0074,-2.011,-2.0158,-2.0186,-2.0209,-2.0253,-2.0283,-2.0305,-2.0337,-2.0388,-2.0417,-2.0469,-2.0512,-2.0595,-2.0629,-2.0679,-2.0684,-2.0716,-2.0692,-2.0685,-2.0686,-2.0684,-2.0688,-2.0721,-2.0722,-2.0722,-2.0723,0,-2.0145,-2.0154,-2.0196,-2.0241,-2.0276,-2.0313,-2.0351,-2.0373,-2.0402,-2.0436,-2.0488,-2.0521,-2.0588,-2.064,-2.0693,-2.072,-2.0728,-2.073,-2.0741,-2.0736,-2.0725,-2.0733,-2.0638,-2.0728,-2.0727,-2.0727,-2.0727,-2.0726,-2.0193,-2.0226,-2.0264,-2.031,-2.034,-2.0375,-2.041,-2.0435,-2.0478,-2.0533,-2.0544,-2.0599,-2.0642,-2.0713,-2.0742,-2.0787,-2.0781,-2.0797,-2.0801,-2.0805,-2.0806,-2.0717,-2.0797,-2.0797,-2.0797,-2.0797,-2.0797,0,-2.0266,-2.029,-2.0332,-2.0382,-2.0419,-2.0419,-2.046,-2.0492,-2.0539,-2.0577,-2.0619,-2.0679,-2.073,-2.0767,-2.0819,-2.0848,-2.0853,-2.0861,-2.086,-2.0867,-2.0808,-2.0794,-2.0857,-2.0857,-2.0857,-2.0857,-2.0857,-2.0857,-2.0308,-2.0363,-2.0378,-2.0449,-2.0474,-2.0527,-2.055,-2.0583,-2.0613,-2.0679,-2.0721,-2.0743,-2.0782,-2.0837,-2.0884,-2.0894,-2.0913,-2.0922,-2.0932,-2.0877,-2.0871,-2.0865,-2.0851,-2.0925,-2.0925,-2.0987,-2.0987,-2.0988]},{"header":{"parameterUnit":"m.s-1","parameterCategory":1,"la1":30.2991,"la2":30.254,"lo1":-89.0895,"lo2":-89.0444,"dy":0.0017,"dx":0.0017,"nx":28,"ny":28,"refTime":"2023-08-25T03:00:00:Z","depth":0,"parameterNumber":3,"parameterNumberName":"V-component_of_WINDS"},"data":[0,0,0,0,0,0,0,0,0,0,0,0,0,0,0,0,0,0,0,0,0,0,0,0,0,0,0,0,0,0,0,0,0,0,0,0,0,0,0,0,0,0,0,0,0,0,0,0,0,0,0,0,0,0,0,0,0,0,4.2777,4.2777,0,4.275,4.275,4.2749,4.271,4.271,4.2709,4.2708,4.2679,4.2679,4.2678,0,0,0,0,0,0,0,0,0,0,0,0,0,4.2795,4.2794,4.2777,4.2777,4.2776,4.275,4.275,4.2749,4.271,4.271,4.2709,4.2708,4.2679,4.2679,4.2678,0,0,0,0,0,0,0,0,0,0,0,0,0,4.2779,4.2794,4.2777,4.2754,4.2751,4.275,4.275,4.2749,4.2711,4.271,4.2709,4.2708,4.2679,4.2679,4.2678,4.2697,0,0,4.2678,4.2678,0,0,0,0,0,0,0,0,4.278,4.2779,4.2758,4.2755,4.2753,4.2733,4.2745,4.2732,4.2711,4.2726,4.2708,4.2707,4.2697,4.2695,4.2693,4.2696,4.2694,4.2678,4.2677,4.2677,4.2677,0,0,0,0,0,0,0,4.2781,4.2779,4.2766,4.2757,4.2754,4.2745,4.2741,4.2742,4.2718,4.2725,4.2722,4.2719,4.2696,4.2693,4.2692,4.2694,4.2678,4.2677,4.2677,4.2677,4.2712,4.2713,0,0,0,0,0,0,4.2786,4.2781,4.2767,4.2765,4.2764,4.2745,4.2741,4.274,4.2717,4.2713,4.272,4.2717,4.2694,4.2692,4.269,4.2711,4.2677,4.2677,4.2677,4.2711,4.2712,4.2714,0,0,0,0,0,0,4.2786,4.2785,4.2768,4.2772,4.2769,4.2746,4.2745,4.274,4.2737,4.2714,4.2709,4.2722,4.2693,4.2691,4.2696,4.271,4.2677,4.2677,4.271,4.2712,4.2713,4.2753,0,0,0,0,0,0,4.2787,4.2785,4.2792,4.2773,4.2769,4.2774,4.2745,4.274,4.2737,4.2733,4.2714,4.271,4.2692,4.2697,4.2696,4.2709,4.2677,4.2708,4.2711,4.2712,4.275,4.2756,4.276,0,0,0,0,0,4.2788,4.2804,4.2793,4.2791,4.2777,4.2775,4.2773,4.2753,4.2738,4.2745,4.273,4.2711,4.2709,4.2698,4.2696,4.2709,4.2707,4.271,4.2712,4.2748,4.2755,4.276,0,0,0,0,0,0,4.2824,4.2801,4.2788,4.2798,4.2789,4.2769,4.2776,4.276,4.2754,4.2751,4.2725,4.2721,4.273,4.272,4.2708,4.2727,4.2705,4.2707,4.2733,4.2739,4.2744,4.2746,4.2676,0,0,0,0,0,4.2834,4.2834,4.2814,4.2825,4.2821,4.28,4.2798,4.2783,4.2772,4.2768,4.2754,4.2744,4.2741,4.2739,4.2735,4.2749,4.2745,4.2758,4.2763,4.2767,4.2769,4.2777,4.2782,4.2722,4.2722,4.2721,0,0,4.2853,4.284,4.2842,4.2832,4.2823,4.2824,4.2797,4.2799,4.2799,4.2768,4.2772,4.2762,4.2749,4.2759,4.2763,4.2751,4.2785,4.277,4.2774,4.2773,4.278,4.2785,4.2791,4.2723,4.2723,4.2723,0,0,4.2888,4.2879,4.2887,4.2879,4.2867,4.2853,4.2855,4.2838,4.283,4.2834,4.2811,4.2812,4.2807,4.2799,4.2795,4.283,4.2812,4.2829,4.2855,4.2863,4.2868,4.2872,4.2885,4.2889,4.2832,4.2832,4.2832,0,4.2913,4.2914,4.2893,4.2898,4.2894,4.2867,4.2876,4.2869,4.2856,4.2854,4.2842,4.2837,4.2826,4.2835,4.2843,4.284,4.2842,4.2831,4.2869,4.2873,4.2876,4.2888,4.2893,4.2834,4.2834,4.2833,4.2833,0,4.2946,4.2947,4.2956,4.2945,4.2942,4.2949,4.2929,4.2929,4.2915,4.2903,4.2908,4.2895,4.2889,4.289,4.2875,4.2896,4.289,4.2874,4.2851,4.2885,4.2895,4.29,4.2837,4.2836,4.2836,4.2835,0,0,4.3001,4.2981,4.2984,4.2979,4.2965,4.2965,4.2971,4.2966,4.2967,4.2959,4.2963,4.2961,4.2947,4.2942,4.2926,4.2933,4.2963,4.2916,4.2916,4.2926,4.2986,4.2998,4.3003,4.2951,4.2952,4.2953,4.2987,0,4.3034,4.3042,4.3025,4.3038,4.3039,4.3015,4.302,4.3012,4.3001,4.3001,4.2988,4.2988,4.2968,4.2965,4.2971,4.2958,4.2974,4.2955,4.2955,4.2955,4.2958,4.3009,4.3021,4.3054,4.2991,4.2992,4.2992,0,4.3072,4.3067,4.3081,4.3067,4.3067,4.3072,4.3066,4.3067,4.3057,4.3049,4.3045,4.3027,4.3032,4.3012,4.3018,4.3006,4.3005,4.2999,4.2999,4.2998,4.2975,4.3009,4.3064,4.3069,4.2999,4.2998,4.2998,0,4.3111,4.3109,4.3117,4.3114,4.3098,4.3102,4.3095,4.3085,4.3083,4.3079,4.3077,4.3073,4.3071,4.3068,4.305,4.3037,4.306,4.3037,4.3053,4.3053,4.3058,4.3057,4.3113,4.3058,4.3058,4.3058,4.3058,0,4.3149,4.3158,4.3135,4.314,4.315,4.313,4.314,4.3131,4.3123,4.3126,4.3104,4.3107,4.3084,4.3085,4.3072,4.308,4.3079,4.3072,4.3068,4.3074,4.3075,4.3072,4.3069,4.3059,4.3059,4.3058,4.3058,0,4.3194,4.3179,4.3186,4.3171,4.3168,4.3176,4.3163,4.3167,4.3155,4.316,4.3159,4.3141,4.3141,4.3124,4.312,4.3111,4.3125,4.3117,4.3128,4.3126,4.3142,4.3141,4.3198,4.3205,4.3145,4.3146,4.3146,0,4.3218,4.3225,4.3212,4.3213,4.3207,4.3209,4.3208,4.3189,4.3189,4.318,4.3185,4.3184,4.3181,4.3183,4.3169,4.3166,4.3158,4.3179,4.3157,4.3163,4.3159,4.3158,4.3159,4.3183,4.3183,4.3184,4.3184,0,4.3264,4.3257,4.3256,4.3253,4.3253,4.325,4.3245,4.3247,4.3227,4.3227,4.3228,4.3226,4.3223,4.3222,4.3218,4.3211,4.3194,4.3192,4.3195,4.32,4.3207,4.3204,4.314,4.319,4.3189,4.3189,4.3189,4.3188,4.3299,4.3305,4.3297,4.3297,4.3292,4.3289,4.3292,4.3282,4.3283,4.3279,4.3268,4.3271,4.3263,4.3255,4.325,4.3251,4.3241,4.3246,4.3247,4.3249,4.3252,4.3207,4.325,4.325,4.325,4.325,4.325,0,4.3344,4.3338,4.3339,4.3334,4.3335,4.3321,4.3315,4.3317,4.3319,4.3313,4.3312,4.3314,4.3313,4.33,4.3298,4.3302,4.3295,4.3303,4.3302,4.3301,4.3261,4.3258,4.3309,4.3309,4.3309,4.3309,4.3309,4.3309,4.3367,4.3376,4.3368,4.3375,4.3368,4.3371,4.337,4.3367,4.3362,4.3365,4.3365,4.3357,4.3348,4.3346,4.3345,4.3342,4.3342,4.3352,4.3346,4.3309,4.3303,4.3298,4.3295,4.3352,4.3352,4.3385,4.3385,4.3386]}]]